Time,TemperatureF,DewpointF,PressureIn,WindDirection,WindDirectionDegrees,WindSpeedMPH,WindSpeedGustMPH,Humidity,HourlyPrecipIn,Conditions,Clouds,dailyrainin,SoftwareType,DateUTC
2013-01-23 00:12:00,8.3,-7.0,30.39,SSE,163,7.0,7.0,50,0.00,,,0.00,weatherlink.com 1.10,2013-01-23 05:12:00,
2013-01-23 00:27:00,8.2,-7.0,30.39,SE,134,6.0,11.0,51,0.00,,,0.00,weatherlink.com 1.10,2013-01-23 05:27:00,
2013-01-23 00:42:00,8.1,-6.0,30.39,ESE,121,1.0,8.0,52,0.00,,,0.00,weatherlink.com 1.10,2013-01-23 05:42:00,
2013-01-23 00:57:00,8.0,-6.0,30.39,SSE,149,0.0,10.0,53,0.00,,,0.00,weatherlink.com 1.10,2013-01-23 05:57:00,
2013-01-23 01:27:00,7.8,-5.0,30.40,SSE,154,2.0,11.0,56,0.00,,,0.00,weatherlink.com 1.10,2013-01-23 06:27:00,
2013-01-23 01:43:00,7.7,-5.0,30.41,SW,221,3.0,10.0,57,0.00,,,0.00,weatherlink.com 1.10,2013-01-23 06:43:00,
2013-01-23 01:58:00,7.6,-4.0,30.41,SSW,213,3.0,11.0,59,0.00,,,0.00,weatherlink.com 1.10,2013-01-23 06:58:00,
2013-01-23 02:13:00,7.6,-4.0,30.41,SSW,208,0.0,8.0,59,0.00,,,0.00,weatherlink.com 1.10,2013-01-23 07:13:00,
2013-01-23 02:28:00,7.4,-4.0,30.41,East,101,1.0,9.0,60,0.00,,,0.00,weatherlink.com 1.10,2013-01-23 07:28:00,
2013-01-23 02:43:00,7.3,-4.0,30.42,SSW,207,2.0,11.0,60,0.00,,,0.00,weatherlink.com 1.10,2013-01-23 07:43:00,
2013-01-23 02:58:00,7.2,-4.0,30.42,NNW,347,0.0,6.0,60,0.00,,,0.00,weatherlink.com 1.10,2013-01-23 07:58:00,
2013-01-23 03:13:00,7.1,-4.0,30.42,East,98,1.0,8.0,61,0.00,,,0.00,weatherlink.com 1.10,2013-01-23 08:13:00,
2013-01-23 03:28:00,7.1,-4.0,30.42,SE,145,0.0,8.0,61,0.00,,,0.00,weatherlink.com 1.10,2013-01-23 08:28:00,
2013-01-23 03:43:00,7.0,-4.0,30.42,East,87,1.0,8.0,61,0.00,,,0.00,weatherlink.com 1.10,2013-01-23 08:43:00,
2013-01-23 03:58:00,6.7,-4.0,30.42,South,183,4.0,5.0,62,0.00,,,0.00,weatherlink.com 1.10,2013-01-23 08:58:00,
2013-01-23 04:13:00,6.7,-4.0,30.42,SSE,155,0.0,3.0,63,0.00,,,0.00,weatherlink.com 1.10,2013-01-23 09:13:00,
2013-01-23 04:28:00,6.5,-4.0,30.42,WSW,250,1.0,5.0,63,0.00,,,0.00,weatherlink.com 1.10,2013-01-23 09:28:00,
2013-01-23 04:43:00,6.6,-4.0,30.42,SSW,196,2.0,9.0,62,0.00,,,0.00,weatherlink.com 1.10,2013-01-23 09:43:00,
2013-01-23 04:59:00,6.6,-4.0,30.43,NW,311,0.0,8.0,63,0.00,,,0.00,weatherlink.com 1.10,2013-01-23 09:59:00,
2013-01-23 05:14:00,6.5,-4.0,30.43,ENE,76,0.0,5.0,63,0.00,,,0.00,weatherlink.com 1.10,2013-01-23 10:14:00,
2013-01-23 05:29:00,6.4,-4.0,30.43,East,95,1.0,5.0,64,0.00,,,0.00,weatherlink.com 1.10,2013-01-23 10:29:00,
2013-01-23 05:44:00,6.3,-4.0,30.43,SE,133,0.0,7.0,64,0.00,,,0.00,weatherlink.com 1.10,2013-01-23 10:44:00,
2013-01-23 05:59:00,6.4,-4.0,30.43,NNE,15,3.0,8.0,63,0.00,,,0.00,weatherlink.com 1.10,2013-01-23 10:59:00,
2013-01-23 06:14:00,6.3,-4.0,30.44,WNW,285,0.0,5.0,64,0.00,,,0.00,weatherlink.com 1.10,2013-01-23 11:14:00,
2013-01-23 06:29:00,6.2,-4.0,30.44,SE,136,3.0,8.0,64,0.00,,,0.00,weatherlink.com 1.10,2013-01-23 11:29:00,
2013-01-23 06:44:00,6.0,-4.0,30.44,SSE,154,1.0,4.0,64,0.00,,,0.00,weatherlink.com 1.10,2013-01-23 11:44:00,
2013-01-23 06:59:00,6.0,-4.0,30.44,ESE,107,2.0,8.0,65,0.00,,,0.00,weatherlink.com 1.10,2013-01-23 11:59:00,
2013-01-23 07:14:00,5.9,-4.0,30.45,WSW,253,0.0,9.0,65,0.00,,,0.00,weatherlink.com 1.10,2013-01-23 12:14:00,
2013-01-23 07:29:00,5.8,-4.0,30.45,SSW,192,1.0,9.0,65,0.00,,,0.00,weatherlink.com 1.10,2013-01-23 12:29:00,
2013-01-23 07:44:00,5.7,-3.0,30.45,ENE,73,1.0,8.0,66,0.00,,,0.00,weatherlink.com 1.10,2013-01-23 12:44:00,
2013-01-23 08:00:00,5.7,-3.0,30.45,NE,50,0.0,7.0,66,0.00,,,0.00,weatherlink.com 1.10,2013-01-23 13:00:00,
2013-01-23 08:14:00,5.8,-3.0,30.46,SW,225,0.0,4.0,67,0.00,,,0.00,weatherlink.com 1.10,2013-01-23 13:14:00,
2013-01-23 08:30:00,6.1,-3.0,30.46,SSW,213,1.0,9.0,66,0.00,,,0.00,weatherlink.com 1.10,2013-01-23 13:30:00,
2013-01-23 08:45:00,6.3,-3.0,30.46,WSW,239,4.0,7.0,66,0.00,,,0.00,weatherlink.com 1.10,2013-01-23 13:45:00,
2013-01-23 09:00:00,7.0,-3.0,30.46,West,277,3.0,14.0,65,0.00,,,0.00,weatherlink.com 1.10,2013-01-23 14:00:00,
2013-01-23 09:15:00,7.6,-3.0,30.46,East,100,1.0,9.0,63,0.00,,,0.00,weatherlink.com 1.10,2013-01-23 14:15:00,
2013-01-23 09:30:00,8.5,-3.0,30.47,South,180,2.0,12.0,61,0.00,,,0.00,weatherlink.com 1.10,2013-01-23 14:30:00,
2013-01-23 09:45:00,10.1,-2.0,30.47,WSW,250,3.0,13.0,59,0.00,,,0.00,weatherlink.com 1.10,2013-01-23 14:45:00,
2013-01-23 10:00:00,11.3,-2.0,30.47,SSE,155,2.0,9.0,55,0.00,,,0.00,weatherlink.com 1.10,2013-01-23 15:00:00,
2013-01-23 10:15:00,10.9,-3.0,30.48,SSE,165,5.0,12.0,55,0.00,,,0.00,weatherlink.com 1.10,2013-01-23 15:15:00,
2013-01-23 10:30:00,12.0,-1.0,30.47,SSW,207,10.0,12.0,55,0.00,,,0.00,weatherlink.com 1.10,2013-01-23 15:30:00,
2013-01-23 10:45:00,13.2,-1.0,30.47,SSW,196,9.0,9.0,54,0.00,,,0.00,weatherlink.com 1.10,2013-01-23 15:45:00,
2013-01-23 11:00:00,13.3,-1.0,30.46,SSW,211,6.0,9.0,52,0.00,,,0.00,weatherlink.com 1.10,2013-01-23 16:00:00,
2013-01-23 11:15:00,13.9,-1.0,30.45,SSW,204,4.0,10.0,51,0.00,,,0.00,weatherlink.com 1.10,2013-01-23 16:15:00,
2013-01-23 11:30:00,14.0,-2.0,30.44,South,190,3.0,14.0,49,0.00,,,0.00,weatherlink.com 1.10,2013-01-23 16:30:00,
2013-01-23 11:45:00,14.0,-3.0,30.43,SSW,212,3.0,18.0,48,0.00,,,0.00,weatherlink.com 1.10,2013-01-23 16:45:00,
2013-01-23 12:01:00,13.6,-3.0,30.42,SSW,207,4.0,10.0,47,0.00,,,0.00,weatherlink.com 1.10,2013-01-23 17:01:00,
2013-01-23 12:16:00,13.5,-3.0,30.42,West,269,3.0,13.0,47,0.00,,,0.00,weatherlink.com 1.10,2013-01-23 17:16:00,
2013-01-23 12:31:00,13.2,-4.0,30.41,SSE,149,7.0,15.0,47,0.00,,,0.00,weatherlink.com 1.10,2013-01-23 17:31:00,
2013-01-23 12:46:00,13.5,-3.0,30.40,ENE,78,3.0,11.0,47,0.00,,,0.00,weatherlink.com 1.10,2013-01-23 17:46:00,
2013-01-23 13:01:00,14.1,-2.0,30.40,WNW,297,2.0,10.0,48,0.00,,,0.00,weatherlink.com 1.10,2013-01-23 18:01:00,
2013-01-23 13:16:00,15.6,-2.0,30.39,SSE,157,5.0,8.0,45,0.00,,,0.00,weatherlink.com 1.10,2013-01-23 18:16:00,
2013-01-23 13:31:00,15.4,-4.0,30.39,SSW,213,0.0,15.0,43,0.00,,,0.00,weatherlink.com 1.10,2013-01-23 18:31:00,
2013-01-23 13:46:00,15.8,-2.0,30.39,NW,310,1.0,5.0,45,0.00,,,0.00,weatherlink.com 1.10,2013-01-23 18:46:00,
2013-01-23 14:01:00,15.8,-4.0,30.39,South,181,1.0,6.0,42,0.00,,,0.00,weatherlink.com 1.10,2013-01-23 19:01:00,
2013-01-23 14:16:00,15.6,-4.0,30.39,SSW,208,6.0,7.0,41,0.00,,,0.00,weatherlink.com 1.10,2013-01-23 19:16:00,
2013-01-23 14:31:00,14.9,-4.0,30.39,West,277,5.0,10.0,43,0.00,,,0.00,weatherlink.com 1.10,2013-01-23 19:31:00,
2013-01-23 14:46:00,14.8,-4.0,30.39,SSE,168,2.0,14.0,44,0.00,,,0.00,weatherlink.com 1.10,2013-01-23 19:46:00,
2013-01-23 15:01:00,14.8,-5.0,30.39,South,169,2.0,13.0,42,0.00,,,0.00,weatherlink.com 1.10,2013-01-23 20:01:00,
2013-01-23 15:16:00,15.1,-4.0,30.39,WNW,287,2.0,8.0,43,0.00,,,0.00,weatherlink.com 1.10,2013-01-23 20:16:00,
2013-01-23 15:32:00,14.8,-4.0,30.40,SSW,198,1.0,10.0,44,0.00,,,0.00,weatherlink.com 1.10,2013-01-23 20:32:00,
2013-01-23 15:47:00,14.5,-4.0,30.40,SSE,158,3.0,6.0,44,0.00,,,0.00,weatherlink.com 1.10,2013-01-23 20:47:00,
2013-01-23 16:02:00,14.4,-4.0,30.40,WSW,243,0.0,12.0,44,0.00,,,0.00,weatherlink.com 1.10,2013-01-23 21:02:00,
2013-01-23 16:17:00,14.1,-3.0,30.40,WNW,294,3.0,6.0,46,0.00,,,0.00,weatherlink.com 1.10,2013-01-23 21:17:00,
2013-01-23 16:32:00,13.9,-4.0,30.40,WNW,298,4.0,6.0,46,0.00,,,0.00,weatherlink.com 1.10,2013-01-23 21:32:00,
2013-01-23 16:47:00,13.7,-2.0,30.40,NNW,338,1.0,3.0,49,0.00,,,0.00,weatherlink.com 1.10,2013-01-23 21:47:00,
2013-01-23 17:02:00,13.5,-4.0,30.40,SE,144,2.0,7.0,46,0.00,,,0.00,weatherlink.com 1.10,2013-01-23 22:02:00,
2013-01-23 17:32:00,13.1,-4.0,30.41,SSW,213,1.0,7.0,46,0.00,,,0.00,weatherlink.com 1.10,2013-01-23 22:32:00,
2013-01-23 17:47:00,12.9,-4.0,30.41,SSE,162,5.0,9.0,46,0.00,,,0.00,weatherlink.com 1.10,2013-01-23 22:47:00,
2013-01-23 18:02:00,12.7,-4.0,30.42,WSW,240,3.0,8.0,47,0.00,,,0.00,weatherlink.com 1.10,2013-01-23 23:02:00,
2013-01-23 18:17:00,12.4,-4.0,30.42,South,181,2.0,5.0,49,0.00,,,0.00,weatherlink.com 1.10,2013-01-23 23:17:00,
2013-01-23 18:32:00,12.1,-2.0,30.43,SSW,205,2.0,4.0,53,0.00,,,0.00,weatherlink.com 1.10,2013-01-23 23:32:00,
2013-01-23 18:48:00,11.8,-2.0,30.43,South,174,1.0,5.0,54,0.00,,,0.00,weatherlink.com 1.10,2013-01-23 23:48:00,
2013-01-23 19:03:00,11.6,-2.0,30.43,SSW,196,0.0,5.0,55,0.00,,,0.00,weatherlink.com 1.10,2013-01-24 00:03:00,
2013-01-23 19:18:00,11.5,-2.0,30.43,South,174,0.0,4.0,55,0.00,,,0.00,weatherlink.com 1.10,2013-01-24 00:18:00,
2013-01-23 19:33:00,11.2,-1.0,30.43,SSE,167,0.0,2.0,57,0.00,,,0.00,weatherlink.com 1.10,2013-01-24 00:33:00,
2013-01-23 19:48:00,10.8,-1.0,30.43,South,179,0.0,3.0,59,0.00,,,0.00,weatherlink.com 1.10,2013-01-24 00:48:00,
2013-01-23 20:03:00,10.6,-1.0,30.43,South,182,0.0,3.0,59,0.00,,,0.00,weatherlink.com 1.10,2013-01-24 01:03:00,
2013-01-23 20:18:00,10.3,-2.0,30.43,South,182,0.0,2.0,59,0.00,,,0.00,weatherlink.com 1.10,2013-01-24 01:18:00,
2013-01-23 20:33:00,10.0,-1.0,30.42,East,97,1.0,2.0,62,0.00,,,0.00,weatherlink.com 1.10,2013-01-24 01:33:00,
2013-01-23 20:48:00,9.8,-1.0,30.42,ENE,78,0.0,1.0,63,0.00,,,0.00,weatherlink.com 1.10,2013-01-24 01:48:00,
2013-01-23 21:03:00,9.4,-1.0,30.42,South,173,0.0,3.0,64,0.00,,,0.00,weatherlink.com 1.10,2013-01-24 02:03:00,
2013-01-23 21:18:00,8.6,-1.0,30.42,South,169,0.0,1.0,66,0.00,,,0.00,weatherlink.com 1.10,2013-01-24 02:18:00,
2013-01-23 21:33:00,8.1,-1.0,30.42,South,169,0.0,1.0,68,0.00,,,0.00,weatherlink.com 1.10,2013-01-24 02:33:00,
2013-01-23 21:48:00,7.7,-1.0,30.43,South,169,0.0,2.0,69,0.00,,,0.00,weatherlink.com 1.10,2013-01-24 02:48:00,
2013-01-23 22:03:00,7.3,-1.0,30.43,South,169,0.0,1.0,69,0.00,,,0.00,weatherlink.com 1.10,2013-01-24 03:03:00,
2013-01-23 22:19:00,7.4,-1.0,30.43,South,169,0.0,0.0,69,0.00,,,0.00,weatherlink.com 1.10,2013-01-24 03:19:00,
2013-01-23 22:34:00,7.5,-1.0,30.43,South,169,0.0,1.0,68,0.00,,,0.00,weatherlink.com 1.10,2013-01-24 03:34:00,
2013-01-23 22:49:00,7.9,-1.0,30.43,South,169,0.0,1.0,67,0.00,,,0.00,weatherlink.com 1.10,2013-01-24 03:49:00,
2013-01-23 23:04:00,7.7,-1.0,30.42,South,169,0.0,0.0,67,0.00,,,0.00,weatherlink.com 1.10,2013-01-24 04:04:00,
2013-01-23 23:19:00,7.1,-1.0,30.43,South,169,0.0,1.0,69,0.00,,,0.00,weatherlink.com 1.10,2013-01-24 04:19:00,
2013-01-23 23:34:00,6.2,-1.0,30.42,South,169,0.0,1.0,71,0.00,,,0.00,weatherlink.com 1.10,2013-01-24 04:34:00,
2013-01-23 23:49:00,6.2,-1.0,30.42,South,169,0.0,1.0,72,0.00,,,0.00,weatherlink.com 1.10,2013-01-24 04:49:00,